OpenBCM V1.13 (Linux)

Packet Radio Mailbox

DB0FHN

[JN59NK Nuernberg]

 Login: GUEST





  
LU9DCE > KEP      16.07.19 20:30l 251 Lines 12262 Bytes #999 (0) @ WW
BID : 28623_LU9DCE
Read: DF7EAV DJ6UX GUEST
Subj: TLE 16 07
Path: DB0FHN<OE2XZR<OE5XBR<OE1XAB<HG8LXL<XE1FH<LU9DCE
Sent: 190716/1801Z 28623@LU9DCE.TOR.BA.ARG.SOAM LinBPQ6.0.18

            __    _  _  ___  ____   ___  ____    ____  ____  ____
           (  )  / )( \/ _ \(    \ / __)(  __)  (  _ \(  _ \/ ___)
           / (_/\) \/ (\__  )) D (( (__  ) _)    ) _ ( ) _ (\___ \
           \____/\____/(___/(____/ \___)(____)  (____/(____/(____/
               ESTACION DE PACKET RADIO - BUENOS AIRES (GF05OM)
                   BOLETINES INFORMATIVOS PROGRAMADOS (BIP)
                  SLACKWARE LINUX - HELLOCODELINUX@GMAIL.COM

+----------------------------------------------------------------------------+
OSCAR 7
1  7530U 74089B   19197.48821601 -.00000052  00000-0 -43671-4 0  9994
2  7530 101.7454 164.8663 0011799 295.1010 178.8199 12.53638861 44002
OSCAR 11 (UoSAT 2)
1 14781U 84021B   19197.49704036  .00000041  00000-0  11190-4 0  9997
2 14781  97.6093 220.8987 0007394 220.4209 139.6457 14.83095544902880
OSCAR 19 (LUSAT)
1 20442U 90005G   19196.90171296 -.00000011 +00000-0 +12324-4 0  9996
2 20442 098.6495 138.8579 0012922 070.9937 289.2645 14.32928821540215
EYESAT A
1 22825U 93061C   19197.20669143 -.00000013  00000-0  12963-4 0  9996
2 22825  98.9040 186.4729 0007295 280.6602  79.3758 14.30062398345888
ITAMSAT
1 22826U 93061D   19197.48175087 -.00000009  00000-0  14405-4 0  9994
2 22826  98.8980 186.7423 0007790 266.7920  93.2370 14.30396145346126
RADIO ROSTO
1 23439U 94085A   19196.92145253 -.00000027 +00000-0 +43493-3 0  9990
2 23439 064.8180 072.0920 0146174 107.8923 253.8001 11.27568340010965
JAS 2
1 24278U 96046B   19196.90971609 -.00000055 +00000-0 -21010-4 0  9995
2 24278 098.5407 346.6314 0350619 169.2733 191.6141 13.53092629131233
TECHSAT 1B
1 25397U 98043D   19196.81821174 -.00000034  00000-0  42476-5 0  9994
2 25397  98.6895 136.6352 0001079  16.7417 343.3797 14.23667675 91735
ISS (ZARYA)
1 25544U 98067A   19197.51184428  .00000204  00000-0  11306-4 0  9991
2 25544  51.6432 215.7804 0006946 145.1590  13.1665 15.50980733179808
PCSAT
1 26931U 01043C   19196.90706084 -.00000032 +00000-0 +19406-4 0  9999
2 26931 067.0519 293.4515 0007095 277.1120 082.9174 14.30546896928793
SAUDISAT 1C
1 27607U 02058C   19197.46985192 -.00000059  00000-0  12677-4 0  9990
2 27607  64.5558 324.6677 0080391 251.1789 108.0582 14.75558643891130
CUTE-1
1 27844U 03031E   19197.44285410  .00000031  00000-0  33586-4 0  9990
2 27844  98.6833 205.2409 0008928 316.6259  43.4216 14.22185361832236
CUBESAT XI 4
1 27848U 03031J   19197.02065303  .00000024  00000-0  30817-4 0  9991
2 27848  98.6909 205.3310 0009074 330.3930  29.6733 14.21779667832022
MOZHAYETS 4
1 27939U 03042A   19197.53955389 -.00000006  00000-0  75171-5 0  9996
2 27939  98.0440 332.8174 0012353 344.8293  15.2546 14.66790477844620
CUBESAT XI 5
1 28895U 05043F   19197.33179950  .00000078  00000-0  23832-4 0  9995
2 28895  97.9628 339.1208 0015388 263.7255  96.2195 14.63675131731523
CUTE-1.7+APD II
1 32785U 08021C   19197.45219469  .00000117  00000-0  18203-4 0  9990
2 32785  97.5496 195.8577 0013420 164.0823 196.0819 14.88320722607816
DELFI C3
1 32789U 08021G   19197.50605623  .00000589  00000-0  43336-4 0  9999
2 32789  97.4623 246.3299 0013113  37.3906 322.8232 15.06999384611154
SEEDS
1 32791U 08021J   19197.49106776  .00000305  00000-0  36246-4 0  9993
2 32791  97.5276 201.8967 0014361 140.0209 220.2070 14.90835201608251
YUBELEINY
1 32953U 08025A   19197.41156110  .00000021  00000-0  75656-4 0  9999
2 32953  82.5027 127.5289 0020450  68.3691 291.9567 12.43090652505759
PRISM (HITOMI)
1 33493U 09002B   19197.00663731  .00000807  00000-0  76160-4 0  9995
2 33493  98.1219 118.9980 0016885  92.1082 268.2072 14.96677721569232
KKS-1 (KISEKI)
1 33499U 09002H   19197.14058692  .00000044  00000-0  14517-4 0  9991
2 33499  98.3488  36.7211 0010359 115.6176 244.6103 14.75448160563278
SWISSCUBE
1 35932U 09051B   19197.14878573  .00000085  00000-0  30268-4 0  9993
2 35932  98.5902   3.9281 0008883  83.4225 276.7983 14.56292394520779
BEESAT
1 35933U 09051C   19197.42489688  .00000072  00000-0  27332-4 0  9994
2 35933  98.5927   5.9833 0007106  93.8903 266.3106 14.56380729520926
ITUPSAT 1
1 35935U 09051E   19197.42982779  .00000051  00000-0  22997-4 0  9994
2 35935  98.6038   6.2245 0009396  91.5036 268.7236 14.55539682520673
XIWANG-1 (HOPE-1)
1 36122U 09072B   19197.09740556 -.00000017  00000-0  65555-4 0  9994
2 36122 100.0722 198.1883 0007007 283.4411  76.5926 13.16350531460488
TISAT 1
1 36799U 10035E   19197.46379042  .00000116  00000-0  17792-4 0  9993
2 36799  98.1588 350.5416 0012167   1.7404 358.3853 14.91118050488906
JUGNU
1 37839U 11058B   19197.29909058  .00000287  00000-0  10910-4 0  9996
2 37839  19.9601 167.3607 0018708 271.3547 232.3505 14.12654019401166
SRMSAT
1 37841U 11058D   19197.45904662  .00000266  00000-0  76616-6 0  9997
2 37841  19.9705 223.7500 0011911 141.1756   4.8674 14.10634971400619
M-CUBED/EXP-1 PRIME
1 37855U 11061F   19197.44713990  .00000913  00000-0  53569-4 0  9996
2 37855 101.7121 107.2907 0173592 354.6148   5.3193 15.05478735420953
HORYU 2
1 38340U 12025D   19197.10397788  .00000108  00000-0  23820-4 0  9996
2 38340  98.3271 236.5148 0012335  42.5934 317.6229 14.75728219385204
STRAND 1
1 39090U 13009E   19197.53556886  .00000022  00000-0  22875-4 0  9999
2 39090  98.4862  43.0238 0008632 199.1566 160.9296 14.35090098334389
SOMP
1 39134U 13015E   19197.45076817  .00000551  00000-0  34553-4 0  9990
2 39134  64.8637 290.5014 0032180 299.1856  60.6053 15.20199226344818
BEESAT 3
1 39135U 13015F   19196.69724403 +.00000527 +00000-0 +35942-4 0  9993
2 39135 064.8701 311.6200 0024857 316.6330 043.2840 15.17503383343951
BEESAT 2
1 39136U 13015G   19196.48071745  .00000495  00000-0  34905-4 0  9997
2 39136  64.8712 316.2207 0020527 299.0625  60.8444 15.16931931344233
CUBEBUG 1
1 39153U 13018D   19197.26934572  .00000085  00000-0  17952-4 0  9990
2 39153  97.9797 295.2406 0018387 108.1499 252.1717 14.80574570335904
ZACUBE
1 39417U 13066B   19196.99833870  .00000135  00000-0  23517-4 0  9994
2 39417  97.5616 208.9651 0057616 305.4474  54.1369 14.81124489305089
TRITON 1
1 39427U 13066M   19197.40467192  .00000160  00000-0  33229-4 0  9991
2 39427  97.6776 173.0718 0115375  76.9082 284.4972 14.67850912302408
GOMX 1
1 39430U 13066Q   19197.53050015  .00000112  00000-0  29072-4 0  9999
2 39430  97.7488 152.2526 0151328 165.9962 194.5495 14.59260708300669
HUMSAT D
1 39433U 13066T   19197.10709166  .00000083  00000-0  13470-4 0  9995
2 39433  97.5517 243.4906 0030081 206.4686 153.4999 14.92207032307167
CUBEBUG 2
1 39440U 13066AA  19197.48068354  .00000131  00000-0  25252-4 0  9996
2 39440  97.6024 194.2770 0080167 355.8850   4.1692 14.75862768304076
FUNCUBE 1
1 39444U 13066AE  19196.91630402 +.00000158 +00000-0 +25906-4 0  9991
2 39444 097.5597 210.8599 0056624 299.3296 060.2268 14.81944767303376
UWE-3
1 39446U 13066AG  19197.43717702  .00000129  00000-0  23913-4 0  9994
2 39446  97.5809 201.2896 0069255 330.7355  28.9985 14.78397239303366
SPROUT
1 39770U 14029E   19197.34879596  .00000554  00000-0  67447-4 0  9996
2 39770  97.8851 300.4619 0009081   3.8639 356.2608 14.87363038278949
UNISAT 6
1 40012U 14033C   19197.50843147  .00000116  00000-0  24746-4 0  9992
2 40012  97.7543  62.9169 0058685   9.6342 350.5977 14.73985541272782
DUCHIFAT 1
1 40021U 14033M   19197.46877264  .00000341  00000-0  40614-4 0  9996
2 40021  97.9236 122.1546 0012097 324.8782  35.1637 14.90642510275684
QB50P1
1 40025U 14033R   19197.52216132  .00000193  00000-0  26560-4 0  9997
2 40025  97.9053 117.1618 0011839 334.7245  25.3391 14.88953368275463
CHUBUSAT 1
1 40300U 14070C   19197.46422750  .00000378  00000-0  19479-4 0  9998
2 40300  97.3241 270.9411 0019493 321.8549 102.6963 15.22106639260243
NUDT-PHONESAT
1 40900U 15049B   19197.44171328  .00001588  00000-0  70709-4 0  9998
2 40900  97.4369 206.5032 0014542  87.1434  20.8465 15.22847900211887
ZDPS 2A
1 40901U 15049C   19197.51004432  .00000515  00000-0  28784-4 0  9993
2 40901  97.4591 202.9290 0014995 104.3748  46.7315 15.17748478211451
ZDPS 2B
1 40902U 15049D   19197.47316691  .00001055  00000-0  55773-4 0  9990
2 40902  97.4540 200.3790 0015104 101.7185  51.7821 15.17575264211428
XW-2A
1 40903U 15049E   19197.49301581  .00001454  00000-0  36128-4 0  9991
2 40903  97.3362 240.4114 0014975  49.5068  56.4967 15.41914160214536
KAITUO 1A
1 40904U 15049F   19197.47795260  .00000604  00000-0  35414-4 0  9994
2 40904  97.4667 199.0092 0016067 109.1972  43.4303 15.15378233211208
OBJECT G
1 40905U 15049G   19197.51291676  .00000035  00000-0  54617-5 0  9997
2 40905  97.4706 196.5699 0017153 104.8131  53.4738 15.14300886211081
XW-2C
1 40906U 15049H   19197.39939841  .00000709  00000-0  40608-4 0  9999
2 40906  97.4673 199.0171 0016368 101.1165   8.6532 15.15692911211192
XW-2D
1 40907U 15049J   19197.44888374  .00000290  00000-0  18563-4 0  9990
2 40907  97.4648 198.7448 0015738  99.3926  61.0262 15.15878811211212
LILACSAT 2
1 40908U 15049K   19197.49932263  .00000141  00000-0  11368-4 0  9994
2 40908  97.4784 197.6153 0017354 104.8634  46.6251 15.13810127211018
XW-2F
1 40910U 15049M   19197.44033685  .00000650  00000-0  35900-4 0  9995
2 40910  97.4620 200.7598 0016386  93.2188  11.1517 15.17320629211220
XW-2B
1 40911U 15049N   19197.40752846  .00000738  00000-0  42026-4 0  9993
2 40911  97.4677 199.3568 0015640  99.4845  10.3359 15.15811955211100
KAITUO 1B
1 40912U 15049P   19197.50357171  .00000880  00000-0  44389-4 0  9999
2 40912  97.4489 204.4949 0016632  76.5870  74.5450 15.19636634211533
TIANWANG 1C (TW-1C)
1 40926U 15051B   19197.50119627  .00007774  00000-0  11251-3 0  9999
2 40926  97.1340 243.6444 0006040 268.4030 197.3164 15.56156251214484
